Location: Yellowknife
(62.4500°N, 114.3500°W)
Time: 23:51:37
(UTC-07:00)

Envisat - Pass Details

Date: 06 October 2023
Orbit: 762 x 764 km, 98.3° (Epoch: 02 December)

Event Time Altitude Azimuth Distance (km) Brightness Sun altitude
Rises 04:49:24 0° 19° (NNE) 3,248 7.1 -21.7°
Reaches altitude 10° 04:51:53 10° 27° (NNE) 2,318 6.3 -21.4°
Maximum altitude 04:56:38 38° 95° (E) 1,168 4.3 -21.0°
Drops below altitude 10° 05:01:21 10° 164° (SSE) 2,302 5.3 -20.5°
Enters shadow 05:03:00 - 170° (S) 2,913 5.8 -20.3°
